GW2327 Weather Reports


time (UTC)temp
F
wind
direction
speed
knots
gust
knots
rain 1hr
in
rain 24hr
in
rain mn
in
humidity
%
barometer
mb
20260506001543 63 177 1.7 5.2 0.00 0.00 0.00 67 1008.9
20260506000106 63 0 0.9 5.2 0.00 0.00 0.00 67 1008.9
20260505234545 63 170 2.6 7.0 0.00 0.00 0.00 67 1008.8
20260505233035 64 173 1.7 7.0 0.00 0.00 0.00 66 1008.7
20260505231537 65 185 3.5 7.8 0.00 0.00 0.00 65 1008.3
20260505230058 65 209 2.6 7.8 0.00 0.00 0.00 65 1008.1
20260505224542 66 186 1.7 6.1 0.00 0.00 0.00 64 1007.9
20260505223040 67 209 0.9 13.0 0.00 0.00 0.00 63 1008.2
20260505221539 67 187 1.7 4.3 0.00 0.00 0.00 65 1008.3
20260505220034 67 173 1.7 7.0 0.00 0.00 0.00 64 1008.2
20260505214533 67 163 1.7 5.2 0.00 0.00 0.00 64 1008.0
20260505213040 67 178 2.6 6.1 0.00 0.00 0.00 64 1008.1
20260505211542 68 123 2.6 7.8 0.00 0.00 0.00 63 1007.8
20260505210037 69 154 0.9 5.2 0.00 0.00 0.00 63 1008.1
20260505204547 69 239 0.9 6.1 0.00 0.00 0.00 61 1008.0
20260505203053 70 215 1.7 6.1 0.00 0.00 0.00 61 1007.8
20260505201543 71 265 2.6 5.2 0.00 0.00 0.00 61 1008.0
20260505200039 71 155 1.7 7.0 0.00 0.00 0.00 62 1008.3
20260505194551 72 148 0.9 7.0 0.00 0.00 0.00 62 1008.3
20260505193038 71 161 1.7 6.1 0.00 0.00 0.00 62 1008.3
20260505191554 72 151 2.6 7.0 0.00 0.00 0.00 60 1008.6
20260505190040 71 160 3.5 7.8 0.00 0.00 0.00 61 1008.9
20260505184538 73 190 1.7 6.1 0.00 0.00 0.00 60 1008.8
20260505183040 72 166 3.5 8.7 0.00 0.00 0.00 61 1008.8
20260505181539 73 197 1.7 8.7 0.00 0.00 0.00 60 1008.9
20260505180045 72 163 2.6 6.1 0.00 0.00 0.00 58 1008.9
20260505174543 72 147 2.6 7.0 0.00 0.00 0.00 61 1009.0
20260505173042 73 146 2.6 9.6 0.00 0.00 0.00 59 1009.1
20260505171538 73 171 1.7 6.1 0.00 0.00 0.00 61 1009.1
20260505170038 72 116 1.7 6.1 0.00 0.00 0.00 61 1009.1
20260505164537 72 52 1.7 6.1 0.00 0.00 0.00 63 1009.6
20260505163043 71 183 0.9 6.1 0.00 0.00 0.00 65 1009.6
20260505161541 70 216 2.6 6.1 0.00 0.00 0.00 64 1009.9
20260505153039 70 222 1.7 5.2 0.00 0.00 0.00 66 1010.2
20260505151537 69 141 1.7 5.2 0.00 0.00 0.00 66 1010.4
20260505150104 68 147 0.9 5.2 0.00 0.00 0.00 69 1010.4
20260505124547 57 140 0.0 1.7 0.00 0.00 0.00 83 1010.5
20260505123049 56 140 0.0 4.3 0.00 0.00 0.00 84 1010.6
20260505121604 56 179 0.9 4.3 0.00 0.00 0.00 85 1010.6
20260505120038 57 33 0.9 2.6 0.00 0.00 0.00 85 1010.8
20260505114538 55 206 0.9 4.3 0.00 0.00 0.00 87 1010.8
20260505113041 54 166 0.9 3.5 0.00 0.00 0.00 88 1010.8
20260505111540 53 0 0.0 4.3 0.00 0.00 0.00 88 1010.7
20260505101542 51 206 0.0 1.7 0.00 0.00 0.00 89 1009.9
20260505100043 51 192 0.9 2.6 0.00 0.00 0.00 89 1009.5
20260505094541 51 206 0.9 2.6 0.00 0.00 0.00 89 1009.7
20260505093033 51 206 0.9 2.6 0.00 0.00 0.00 89 1009.6
20260505091559 50 202 0.0 1.7 0.00 0.00 0.00 89 1009.6
20260505090055 50 202 0.0 2.6 0.00 0.00 0.00 89 1009.5
20260505084539 50 190 0.9 2.6 0.00 0.00 0.00 90 1009.7
20260505083045 49 172 0.0 3.5 0.00 0.00 0.00 89 1009.7
20260505081545 48 0 0.0 0.9 0.00 0.00 0.00 89 1009.8
20260505080048 49 0 0.0 0.0 0.00 0.00 0.00 88 1009.8
20260505074542 48 0 0.0 1.7 0.00 0.00 0.00 88 1009.7
20260505073048 48 0 0.0 0.9 0.00 0.00 0.00 87 1009.7
20260505071541 49 176 0.0 0.9 0.00 0.00 0.00 87 1009.7
20260505070036 49 0 0.0 0.9 0.00 0.00 0.00 87 1009.8
20260505064539 49 0 0.0 0.0 0.00 0.00 0.00 86 1009.9
20260505063046 49 0 0.0 0.0 0.00 0.00 0.00 85 1010.0
20260505061540 50 0 0.0 0.9 0.00 0.00 0.00 85 1010.0
20260505060039 49 0 0.0 0.0 0.00 0.00 0.00 85 1010.2
20260505054551 49 0 0.0 0.0 0.00 0.00 0.00 84 1010.3
20260505053047 49 0 0.0 0.9 0.00 0.00 0.00 83 1010.4
20260505051544 50 0 0.0 0.0 0.00 0.00 0.00 82 1010.4
20260505041550 50 0 0.0 0.9 0.00 0.00 0.00 82 1010.7
20260505040043 50 179 0.0 0.9 0.00 0.00 0.00 81 1010.8
20260505034539 51 0 0.0 0.0 0.00 0.00 0.00 80 1010.8
20260505033035 51 0 0.0 0.0 0.00 0.00 0.00 79 1010.7
20260505031540 51 0 0.0 0.0 0.00 0.00 0.00 78 1010.8
20260505030054 51 0 0.0 0.9 0.00 0.00 0.00 78 1010.8
20260505024537 52 0 0.0 0.9 0.00 0.00 0.00 76 1010.8
20260505023040 53 0 0.0 1.7 0.00 0.00 0.00 76 1010.8
20260505021549 54 186 0.0 1.7 0.00 0.00 0.00 74 1011.0
20260505020048 53 0 0.0 1.7 0.00 0.00 0.00 74 1010.8
20260505014536 54 200 0.0 2.6 0.00 0.00 0.00 73 1010.7
20260505013041 55 184 0.9 3.5 0.00 0.00 0.00 71 1010.8
20260505011535 55 182 0.9 3.5 0.00 0.00 0.00 70 1010.6
20260505010103 55 205 0.9 3.5 0.00 0.00 0.00 68 1010.3
20260505004537 56 192 1.7 5.2 0.00 0.00 0.00 67 1010.1
20260505003046 56 190 0.9 3.5 0.00 0.00 0.00 65 1010.0